FW4758 Weather Reports


Display with metric or nautical units.
time (UTC)temp
F
wind
direction
speed
MPH
gust
MPH
rain 1hr
in
rain 24hr
in
rain mn
in
humidity
%
barometer
mb
20260507141600 58 42 3.0 7.0 0.00 0.14 0.00 85 1019.6
20260507134556 55 351 3.0 7.0 0.00 0.14 0.00 86 1019.7
20260507133056 54 299 2.0 6.0 0.00 0.14 0.00 85 1019.7
20260507131555 53 300 1.0 4.0 0.00 0.14 0.00 85 1019.7
20260507130104 52 314 1.0 4.0 0.00 0.14 0.00 85 1019.6
20260507124558 51 207 1.0 3.0 0.00 0.14 0.00 86 1019.9
20260507123056 51 207 1.0 3.0 0.00 0.14 0.00 86 1019.7
20260507121557 51 188 2.0 4.0 0.00 0.14 0.00 86 1019.4
20260507120052 51 334 0.0 0.0 0.00 0.14 0.00 86 1020.0
20260507114549 51 334 0.0 0.0 0.00 0.14 0.00 86 1019.6
20260507113050 51 334 1.0 3.0 0.00 0.14 0.00 86 1019.5
20260507111546 51 298 2.0 4.0 0.00 0.14 0.00 86 1019.2
20260507110055 52 342 2.0 5.0 0.00 0.14 0.00 86 1019.0
20260507104548 52 319 3.0 7.0 0.00 0.14 0.00 86 1018.8
20260507103059 52 328 4.0 7.0 0.00 0.14 0.00 86 1018.4
20260507101539 52 308 3.0 5.0 0.00 0.14 0.00 86 1018.3
20260507100033 53 342 3.0 5.0 0.00 0.14 0.00 85 1017.9
20260507094534 53 355 1.0 5.0 0.00 0.14 0.00 86 1017.8
20260507093029 53 16 1.0 5.0 0.00 0.14 0.00 85 1017.6
20260507091536 54 16 2.0 6.0 0.00 0.14 0.00 85 1017.2
20260507090032 54 55 2.0 8.0 0.00 0.14 0.00 85 1017.3
20260507084537 54 40 3.0 7.0 0.00 0.14 0.00 85 1017.0
20260507083021 54 28 4.0 8.0 0.00 0.14 0.00 85 1016.8
20260507081519 55 350 3.0 9.0 0.00 0.14 0.00 85 1016.8
20260507080015 55 26 3.0 7.0 0.00 0.14 0.00 84 1017.0
20260507074513 55 38 3.0 8.0 0.00 0.14 0.00 84 1017.0
20260507073012 55 17 3.0 7.0 0.00 0.14 0.00 84 1016.7
20260507071509 55 5 2.0 7.0 0.00 0.14 0.00 83 1016.6
20260507070010 56 17 3.0 7.0 0.00 0.14 0.00 83 1016.2
20260507064505 56 25 5.0 8.0 0.00 0.14 0.00 83 1016.1
20260507063005 56 53 3.0 9.0 0.00 0.14 0.00 83 1016.0
20260507061502 56 54 4.0 8.0 0.00 0.14 0.00 82 1016.0
20260507060105 57 46 5.0 11.0 0.00 0.14 0.00 82 1016.0
20260507054614 57 59 5.0 9.0 0.00 0.14 0.00 82 1016.1
20260507053107 57 38 6.0 11.0 0.00 0.14 0.00 82 1016.0
20260507051600 57 41 5.0 10.0 0.00 0.14 0.00 82 1016.1
20260507050056 57 59 6.0 13.0 0.00 0.14 0.00 81 1016.0
20260507044557 57 28 7.0 11.0 0.00 0.14 0.14 81 1015.9
20260507043053 58 35 4.0 13.0 0.00 0.14 0.14 81 1016.1
20260507041601 58 32 9.0 12.0 0.00 0.14 0.14 82 1016.2
20260507040053 58 55 7.0 12.0 0.00 0.14 0.14 82 1016.1
20260507034551 59 70 5.0 8.0 0.00 0.14 0.14 82 1016.3
20260507033052 59 37 4.0 11.0 0.00 0.14 0.14 81 1016.2
20260507031549 59 32 5.0 11.0 0.00 0.14 0.14 81 1016.2
20260507030048 59 45 6.0 11.0 0.00 0.14 0.14 83 1015.7
20260507024551 59 9 4.0 8.0 0.00 0.14 0.14 83 1015.8
20260507023044 59 13 4.0 9.0 0.00 0.14 0.14 83 1015.5
20260507021552 58 360 6.0 10.0 0.00 0.14 0.14 84 1015.1
20260507020105 58 40 6.0 11.0 0.00 0.14 0.14 85 1014.7
20260507014601 57 49 2.0 5.0 0.00 0.14 0.14 85 1014.3
20260507013047 57 60 1.0 3.0 0.00 0.14 0.14 85 1014.0
20260507011549 58 78 2.0 4.0 0.00 0.14 0.14 85 1013.6
20260507010045 58 67 3.0 7.0 0.00 0.14 0.14 85 1013.5
20260507004540 59 74 3.0 5.0 0.00 0.14 0.14 85 1013.5
20260507003039 59 84 4.0 7.0 0.00 0.14 0.14 85 1013.4
20260507001555 60 70 3.0 6.0 0.00 0.14 0.14 85 1013.3
20260507000051 59 59 4.0 7.0 0.00 0.14 0.14 85 1013.2
20260506234547 59 18 3.0 7.0 0.00 0.14 0.14 85 1013.0
20260506233041 59 84 5.0 8.0 0.00 0.14 0.14 85 1012.9
20260506231538 59 63 3.0 7.0 0.10 0.14 0.14 85 1012.7
20260506230037 59 51 3.0 6.0 0.10 0.14 0.14 85 1012.5
20260506224536 58 40 4.0 7.0 0.10 0.14 0.14 85 1012.6
20260506223037 58 26 4.0 10.0 0.10 0.14 0.14 84 1012.4
20260506221543 61 346 7.0 10.0 0.00 0.04 0.04 76 1012.8
20260506220042 61 360 7.0 11.0 0.00 0.04 0.04 75 1012.1
20260506214534 61 348 6.0 9.0 0.00 0.04 0.04 75 1012.4
20260506213041 61 321 7.0 12.0 0.00 0.04 0.04 75 1012.3
20260506211541 61 17 4.0 11.0 0.00 0.04 0.04 76 1012.5
20260506210042 60 360 6.0 10.0 0.00 0.04 0.04 75 1012.4
20260506204534 60 319 5.0 11.0 0.00 0.04 0.04 76 1012.6
20260506203033 60 347 4.0 8.0 0.00 0.04 0.04 78 1012.6
20260506201537 60 349 6.0 11.0 0.00 0.04 0.04 75 1012.8
20260506200033 60 344 3.0 10.0 0.00 0.04 0.04 81 1013.2
20260506194529 58 28 4.0 10.0 0.00 0.04 0.04 81 1013.4
20260506193042 57 304 6.0 12.0 0.00 0.04 0.04 80 1013.6
20260506191528 57 38 5.0 10.0 0.00 0.04 0.04 82 1013.6
20260506190028 55 35 3.0 7.0 0.00 0.04 0.04 84 1013.7
20260506184531 54 310 5.0 8.0 0.00 0.04 0.04 84 1014.1
20260506183027 54 348 4.0 10.0 0.00 0.04 0.04 84 1014.2
20260506181536 54 296 5.0 11.0 0.00 0.04 0.04 84 1013.6
20260506180026 54 340 7.0 16.0 0.00 0.04 0.04 85 1012.6
20260506174528 54 355 7.0 15.0 0.00 0.04 0.04 85 1012.3
20260506173047 53 342 6.0 14.0 0.00 0.04 0.04 86 1012.7
20260506171532 53 355 5.0 12.0 0.00 0.04 0.04 86 1013.4
20260506170023 53 38 5.0 11.0 0.00 0.04 0.04 86 1012.8
20260506164522 52 19 6.0 12.0 0.00 0.04 0.04 86 1013.3
20260506163028 52 325 7.0 13.0 0.00 0.04 0.04 86 1013.2
20260506161522 52 19 5.0 13.0 0.00 0.04 0.04 86 1013.0
20260506160022 52 355 6.0 14.0 0.00 0.04 0.04 86 1013.0
20260506154521 52 360 7.0 13.0 0.01 0.04 0.04 86 1012.7
20260506153024 52 19 4.0 13.0 0.04 0.04 0.04 85 1012.7
20260506151520 51 5 7.0 15.0 0.04 0.04 0.04 85 1012.6
20260506150019 51 333 6.0 9.0 0.04 0.04 0.04 86 1014.1
20260506144517 51 355 6.0 9.0 0.03 0.03 0.03 85 1014.0
20260506143023 52 327 6.0 12.0 0.00 0.00 0.00 85 1014.2